Regional Weather Roundup
Issued by NWS Little Rock, AR

Home | Current Version | Previous Version | Graphics & Text | Print | Product List | Glossary On
Versions: 1 2 3 4 5 6 7 8 9 10 11 12 13 14 15 16 17 18 19 20 21 22 23 24 25 26 27 28 29 30 31 32 33 34 35 36 37 38 39 40 41 42 43 44 45 46 47
000
ASUS44 KLZK 201805
RWRLZK

WEATHER ROUNDUP FOR ARKANSAS
NATIONAL WEATHER SERVICE LITTLE ROCK AR
100 PM CDT SAT SEP 20 2014

NOTE: "FAIR" INDICATES FEW OR NO CLOUDS BELOW 12,000 FEET WITH NO
SIGNIFICANT WEATHER AND/OR OBSTRUCTIONS TO VISIBILITY.

ARZ001-003-010-029-201900-
NORTHWEST ARKANSAS

CITY           SKY/WX    TMP DP  RH WIND       PRES   REMARKS
FAYETTEVILLE   MOSUNNY   79  68  69 SW7       30.09F
6HR MIN TEMP:  64; 6HR MAX TEMP:  81;

FORT SMITH     PTSUNNY   84  69  60 VRB3      30.05F HX  88
6HR MIN TEMP:  68; 6HR MAX TEMP:  85;

HARRISON       MOSUNNY   83  68  60 VRB3      30.09F HX  86
6HR MIN TEMP:  62; 6HR MAX TEMP:  83;

BENTONVILLE    PTSUNNY   82  68  61 W10       30.09F HX  85
6HR MIN TEMP:  64; 6HR MAX TEMP:  82;

ROGERS         PTSUNNY   82  68  62 SW9       30.09F HX  85
6HR MIN TEMP:  64; 6HR MAX TEMP:  82;

SILOAM SPGS    MOSUNNY   82  66  57 SW12      30.09F HX  85
6HR MIN TEMP:  64; 6HR MAX TEMP:  82;

HIGHFILL       MOSUNNY   82  70  66 SW10      30.08F HX  86
6HR MIN TEMP:  61; 6HR MAX TEMP:  82;

SPRINGDALE     PTSUNNY   81  70  69 SW12      30.11F
$$

ARZ004-005-016-201900-
NORTH CENTRAL ARKANSAS

CITY           SKY/WX    TMP DP  RH WIND       PRES   REMARKS
BATESVILLE     PTSUNNY   88  68  51 CALM      30.04F HX  91
6HR MIN TEMP:  61; 6HR MAX TEMP:  88;

FLIPPIN        SUNNY     84  64  51 SW5       30.06F HX  86
6HR MIN TEMP:  61; 6HR MAX TEMP:  84;

MTN HOME       PTSUNNY   85  69  58 VRB3      30.06F HX  89
6HR MIN TEMP:  61; 6HR MAX TEMP:  85;

$$

ARZ040-041-201900-
WEST CENTRAL ARKANSAS

CITY           SKY/WX    TMP DP  RH WIND       PRES   REMARKS
MENA           MOSUNNY   84  70  61 CALM      30.08F HX  88
MOUNT IDA      SUNNY     84  68  58 CALM      30.05F HX  87
6HR MIN TEMP:  65; 6HR MAX TEMP:  86;

$$

ARZ009-017-025-026-028-201900-
NORTHEAST ARKANSAS

CITY           SKY/WX    TMP DP  RH WIND       PRES   REMARKS
CORNING        LGT RAIN  84  70  61 SW10      30.05F HX  88
JONESBORO      MOSUNNY   88  67  49 VRB5      30.04F HX  91
6HR MIN TEMP:  63; 6HR MAX TEMP:  88;

NEWPORT        SUNNY     91  66  43 SW8       30.05F HX  93
6HR MIN TEMP:  62; 6HR MAX TEMP:  91;

WALNUT RIDGE   MOSUNNY   86  68  54 SW5       30.04F HX  89
6HR MIN TEMP:  63; 6HR MAX TEMP:  86;

BLYTHEVILLE    MOSUNNY   87  70  56 VRB6      30.05F HX  92
6HR MIN TEMP:  65; 6HR MAX TEMP:  87;

$$

ARZ022-023-033-042-044-201900-
CENTRAL ARKANSAS

CITY           SKY/WX    TMP DP  RH WIND       PRES   REMARKS
LITTLE ROCK    MOSUNNY   89  65  44 VRB3      30.05F HX  91
6HR MIN TEMP:  68; 6HR MAX TEMP:  90;

N LITTLE ROCK  MOSUNNY   86  68  54 S3        30.05F HX  90
6HR MIN TEMP:  70; 6HR MAX TEMP:  87;

JACKSONVILLE   MOSUNNY   88  66  47 S6        30.05F HX  90
6HR MIN TEMP:  63; 6HR MAX TEMP:  88; 6HR PCP: TRACE;

SEARCY         MOSUNNY   89  67  48 S7        30.06F HX  92
6HR MIN TEMP:  63; 6HR MAX TEMP:  89;

HOT SPRINGS    CLOUDY    86  67  52 NW6       30.06F HX  89
6HR MIN TEMP:  67; 6HR MAX TEMP:  87;

RUSSELLVILLE   MOSUNNY   87  69  54 VRB5      30.05F HX  91
6HR MIN TEMP:  64; 6HR MAX TEMP:  87;

CLINTON        FAIR      86  70  58 SW5       30.06F HX  90
$$

ARZ036-201900-
EAST ARKANSAS

CITY           SKY/WX    TMP DP  RH WIND       PRES   REMARKS
WEST MEMPHIS   MOSUNNY   88  69  53 S8        30.04F HX  92
6HR MIN TEMP:  65; 6HR MAX TEMP:  88;

$$

ARZ050-053-066-070-073-201900-
SOUTHWEST ARKANSAS

CITY           SKY/WX    TMP DP  RH WIND       PRES   REMARKS
ARKADELPHIA    FAIR      90  71  53 VRB5      30.05F HX  96
6HR MIN TEMP:  66; 6HR MAX TEMP:  90;

CAMDEN         PTSUNNY   91  64  40 N3        30.04F HX  93
TEXARKANA      MOSUNNY   87  70  56 VRB5      30.04F HX  92
6HR MIN TEMP:  67; 6HR MAX TEMP:  87;

EL DORADO      MOSUNNY   86  67  52 VRB3      30.04F HX  89
6HR MIN TEMP:  65; 6HR MAX TEMP:  87;

DE QUEEN       SUNNY     87  70  56 SE3       30.03F HX  92
6HR MIN TEMP:  65; 6HR MAX TEMP:  87;

$$

ARZ056-057-069-201900-
SOUTHEAST ARKANSAS

CITY           SKY/WX    TMP DP  RH WIND       PRES   REMARKS
PINE BLUFF     PTSUNNY   89  61  38 CALM      30.04F HX  89
6HR MIN TEMP:  65; 6HR MAX TEMP:  90;

STUTTGART      PTSUNNY   88  66  48 CALM      30.06F HX  90
6HR MIN TEMP:  66; 6HR MAX TEMP:  90;

MONTICELLO     SUNNY     89  64  43 VRB3      30.04F HX  90
6HR MIN TEMP:  67; 6HR MAX TEMP:  90;


$$




USA.gov is the U.S. government's official web portal to all federal, state and local government web resources and services.